STARLINK-36495, 67311

Orbit data source: Space-Track

STARLINK-36495, 67311 is a payload satellite owned by SpaceX/Seattle (US) in LEO that was launched on Sun, 04 Jan 2026 UTC via an FALCON 9 launch vehicle from the Air Force Eastern Test Range (AFETR). Payload-class satellites include a variety of spacecraft equipped with specific instruments for various scientific and technological missions. These include communications satellites like Starlink; space stations such as the ISS; scientific satellites like the Hubble; Earth observation satellites from companies like Planet Labs, Umbra, and HawkEye 360; GPS; miniature CubeSats for education and research; and military/defense satellites.

Loading next visibility...
Identifier
67311, 2026-002G
Orbit
LEO
Country
Flag of USUS
Related business
Manufacturer
SpaceX/Seattle
Mission
Operational Commercial Communications
Bus & Motor
STARLINK V2MO, Unknown motor
Mass
575 kg wet, ~530 kg dry
Launch date (UTC)
2026-01-04 (2 months ago)
Launch vehicle
FALCON 9
Launch site
Air Force Eastern Test Range (AFETR)
Object type
Payload
Rocket body
Debris
Shape & HBR
Box + 2 Pan, 17.7 m
Radar Cross Section
36.964 m²

Expand to show TLE details & history
Last TLE update: 22 hours ago

TLE from 22 hours ago
0 STARLINK-36495
1 67311U 26002G   26062.23292673  .00033594  00000-0  12232-2 0  9994
2 67311  43.0026   1.5368 0005244 237.8436 122.1907 15.27610512 10256
Epoch: 2026-03-03T05:35Z
TLE epoch observation values (Epoch: 2026-03-03T05:35:24.869Z)
Latitude
-0.00004°
Longitude
116.66821°
Altitude
484.651 km
Speed
7.624 km/s
True Right ascension
00h 06m 08s
True Declination
0° 00' 00"
Sunlit
Object was in daylight at epoch
Visualization orbit readout
Latitude
Unknown
Longitude
Unknown
Altitude
Unknown
Speed
Unknown
Apparent Right ascension
Unknown
Apparent Declination
Unknown
Sunlit
N/A
Visualization observer readout
Local Sidereal Time
07:40:33
Azimuth
Unknown
Elevation
Unknown
Doppler factor
Unknown
Orbital elements
Apogee altitude
488.501 km
Perigee altitude
481.304 km
Semi-major axis
6,863.039 km
Eccentricity
0.00052
Inclination
43.0026°
RAAN
1.5368°
Arg. of periapsis
237.8436°
True anomaly
122.24154°
Mean anomaly
122.1907°
Eccentric anomaly
122.21612°
Mean motion
3.81741 °/min
Orbital period
94.3 mins
BSTAR
0.0012232
Loading maneuver chart data...
Computing Atmospheric mass density...
Loading historical data...
Loading historical data...
Loading historical data...
Loading historical data...
Loading historical data...
Loading historical data...
Loading historical data...

Documentation

Showing up to 5 results
|